Preview of NWS' New Version of Forecast
This preview is not operational and should not be used for support decisions.

Regional Weather Roundup (RWR)

Issued by National Weather Service (NWS)

                            
000
ASUS43 KBIS 190410
RWRND 

NORTH DAKOTA REGIONAL WEATHER ROUNDUP
NATIONAL WEATHER SERVICE BISMARCK ND
1100 PM CDT THU APR 18 2019

NOTE: "FAIR" INDICATES FEW OR NO CLOUDS BELOW 12,000 FEET WITH NO
SIGNIFICANT WEATHER AND/OR OBSTRUCTIONS TO VISIBILITY.


NDZ001>003-009>011-017-190500-
NORTHWEST NORTH DAKOTA
  
CITY           SKY/WX    TMP DP  RH WIND       PRES   REMARKS
WILLISTON      PTCLDY    41  28  60 CALM      30.02S                  
MINOT          CLEAR     44  34  67 SW7       30.02F                  
$$
 
NDZ018>021-031>035-040>046-190500-
SOUTHWEST NORTH DAKOTA
  
CITY           SKY/WX    TMP DP  RH WIND       PRES   REMARKS
BISMARCK       CLEAR     40  34  79 CALM      30.08S                  
DICKINSON      PTCLDY    35  26  69 S7        30.05S                  
GARRISON         N/A     41  33  73 CALM      30.05S                  
HETTINGER ARPT CLEAR     37  25  61 CALM      30.09F                  
$$
 
NDZ004>008-012>016-024-026-027-054-190500-
NORTHEAST NORTH DAKOTA
  
CITY           SKY/WX    TMP DP  RH WIND       PRES   REMARKS
GRAND FORKS    CLEAR     44  34  67 W7        30.03S                  
DEVILS LAKE    CLEAR     39  35  86 SW6       30.05S                  
$$
 
NDZ022-023-025-028>030-036>039-047>053-190500-
SOUTHEAST NORTH DAKOTA
  
CITY           SKY/WX    TMP DP  RH WIND       PRES   REMARKS
FARGO          CLEAR     41  37  86 W7        30.04R                  
JAMESTOWN      CLEAR     40  36  86 SW3       30.06S                  
$$